FW8889 Weather Reports


Display with metric or nautical units.
time (UTC)temp
F
wind
direction
speed
MPH
gust
MPH
rain 1hr
in
rain 24hr
in
rain mn
in
humidity
%
barometer
mb
20260509174547 50 134 0.0 2.0 0.01 0.10 0.10 87 1014.6
20260509173047 49 134 0.0 2.0 0.01 0.10 0.10 87 1014.9
20260509171547 49 0 0.0 2.0 0.02 0.10 0.10 87 1014.8
20260509170057 49 0 0.0 2.0 0.03 0.10 0.10 87 1015.0
20260509164557 49 0 0.0 2.0 0.02 0.09 0.09 87 1015.1
20260509163053 48 133 1.0 4.0 0.03 0.09 0.09 87 1014.8
20260509161559 48 132 0.0 2.0 0.03 0.08 0.08 87 1014.6
20260509160051 48 0 0.0 1.0 0.03 0.07 0.07 86 1015.2
20260509154548 48 0 0.0 2.0 0.04 0.07 0.07 86 1015.4
20260509153055 48 0 0.0 1.0 0.03 0.06 0.06 86 1015.7
20260509151558 48 0 0.0 1.0 0.03 0.05 0.05 86 1015.8
20260509150054 48 0 0.0 1.0 0.04 0.04 0.04 84 1015.9
20260509144550 48 0 0.0 1.0 0.03 0.03 0.03 84 1016.1
20260509143055 49 0 0.0 2.0 0.03 0.03 0.03 82 1016.2
20260509141549 49 0 0.0 2.0 0.02 0.02 0.02 78 1016.1
20260509140059 50 0 0.0 2.0 0.00 0.00 0.00 73 1016.1
20260509134607 51 0 0.0 3.0 0.00 0.00 0.00 67 1015.9
20260509133050 51 0 0.0 3.0 0.00 0.00 0.00 65 1015.8
20260509131553 51 0 0.0 3.0 0.00 0.00 0.00 64 1015.6
20260509130048 51 0 0.0 2.0 0.00 0.00 0.00 63 1015.9
20260509124545 50 88 0.0 2.0 0.00 0.00 0.00 68 1016.0
20260509123052 48 0 0.0 2.0 0.00 0.00 0.00 73 1016.0
20260509121553 47 0 0.0 2.0 0.00 0.00 0.00 77 1016.0
20260509120043 46 0 0.0 1.0 0.00 0.00 0.00 80 1015.8
20260509114548 44 0 0.0 1.0 0.00 0.00 0.00 84 1015.8
20260509113053 43 0 0.0 1.0 0.00 0.00 0.00 85 1015.8
20260509111551 41 0 0.0 0.0 0.00 0.00 0.00 87 1015.8
20260509110046 40 0 0.0 0.0 0.00 0.00 0.00 87 1015.9
20260509104548 40 0 0.0 0.0 0.00 0.00 0.00 88 1016.0
20260509103053 38 0 0.0 0.0 0.00 0.00 0.00 88 1016.0
20260509101554 38 0 0.0 0.0 0.00 0.00 0.00 87 1015.7
20260509100051 37 0 0.0 0.0 0.00 0.00 0.00 87 1015.4
20260509094545 37 0 0.0 0.0 0.00 0.00 0.00 87 1015.4
20260509093057 37 0 0.0 0.0 0.00 0.00 0.00 87 1015.2
20260509091551 37 0 0.0 0.0 0.00 0.00 0.00 86 1015.2
20260509090052 37 0 0.0 0.0 0.00 0.00 0.00 86 1015.1
20260509084550 38 0 0.0 1.0 0.00 0.00 0.00 86 1014.9
20260509083052 38 0 0.0 0.0 0.00 0.00 0.00 86 1015.0
20260509081551 38 0 0.0 0.0 0.00 0.00 0.00 85 1015.0
20260509080048 38 0 0.0 0.0 0.00 0.00 0.00 84 1015.1
20260509074559 38 0 0.0 0.0 0.00 0.00 0.00 83 1015.0
20260509073101 38 0 0.0 0.0 0.00 0.00 0.00 83 1014.7
20260509071546 39 0 0.0 0.0 0.00 0.00 0.00 82 1014.8
20260509070049 39 0 0.0 0.0 0.00 0.00 0.00 82 1014.6
20260509064558 40 0 0.0 0.0 0.00 0.00 0.00 81 1014.5
20260509063050 40 0 0.0 0.0 0.00 0.00 0.00 80 1014.7
20260509061559 40 0 0.0 0.0 0.00 0.00 0.00 79 1014.9
20260509060054 41 0 0.0 0.0 0.00 0.00 0.00 77 1014.6
20260509054541 41 0 0.0 0.0 0.00 0.00 0.00 76 1014.6
20260509053049 42 0 0.0 1.0 0.00 0.00 0.00 75 1014.7
20260509051551 42 0 0.0 0.0 0.00 0.00 0.00 74 1014.6
20260509050050 43 0 0.0 0.0 0.00 0.00 0.00 73 1014.5
20260509044550 44 0 0.0 0.0 0.00 0.00 0.00 71 1014.4
20260509043057 44 0 0.0 0.0 0.00 0.00 0.00 69 1014.4
20260509041551 45 0 0.0 0.0 0.00 0.00 0.00 68 1014.3
20260509040058 45 0 0.0 0.0 0.00 0.00 0.00 67 1014.2
20260509034554 46 0 0.0 1.0 0.00 0.00 0.00 65 1014.1
20260509033054 47 0 0.0 0.0 0.00 0.00 0.00 62 1014.0
20260509031552 48 0 0.0 0.0 0.00 0.00 0.00 60 1014.0
20260509030053 49 0 0.0 0.0 0.00 0.00 0.00 57 1013.9
20260509024546 50 0 0.0 0.0 0.00 0.00 0.00 56 1013.7
20260509023053 50 0 0.0 1.0 0.00 0.00 0.00 54 1013.8
20260509021549 51 0 0.0 0.0 0.00 0.00 0.00 53 1013.4
20260509020054 51 0 0.0 1.0 0.00 0.00 0.00 52 1013.3
20260509014548 51 0 0.0 0.0 0.00 0.00 0.00 49 1013.1
20260509013055 52 0 0.0 2.0 0.00 0.00 0.00 49 1012.9
20260509011545 52 0 0.0 2.0 0.00 0.00 0.00 48 1012.5
20260509010046 52 95 1.0 3.0 0.00 0.00 0.00 48 1012.1
20260509004610 53 0 0.0 2.0 0.00 0.00 0.00 47 1011.8
20260509003053 53 333 0.0 4.0 0.00 0.00 0.00 44 1011.5
20260509001553 54 0 0.0 2.0 0.00 0.00 0.00 44 1011.3
20260509000048 55 151 0.0 2.0 0.00 0.00 0.00 42 1011.2
20260508234550 55 329 0.0 6.0 0.00 0.00 0.00 39 1010.8
20260508233051 56 69 0.0 3.0 0.00 0.00 0.00 40 1010.5
20260508231552 56 0 0.0 3.0 0.00 0.00 0.00 39 1010.3
20260508230053 57 133 1.0 4.0 0.00 0.00 0.00 38 1010.0
20260508224553 58 0 1.0 7.0 0.00 0.00 0.00 37 1009.9
20260508223050 58 94 0.0 8.0 0.00 0.00 0.00 36 1009.8
20260508221551 58 355 1.0 7.0 0.00 0.00 0.00 35 1009.9
20260508220052 58 281 1.0 5.0 0.00 0.00 0.00 37 1009.9
20260508214601 59 154 2.0 6.0 0.00 0.00 0.00 36 1009.7
20260508213050 61 352 1.0 5.0 0.00 0.00 0.00 33 1009.5
20260508211548 61 159 2.0 7.0 0.00 0.00 0.00 33 1009.5
20260508210055 60 289 1.0 4.0 0.00 0.00 0.00 35 1009.5
20260508204550 60 178 1.0 7.0 0.00 0.00 0.00 34 1009.3
20260508203053 60 0 1.0 9.0 0.00 0.00 0.00 35 1009.3
20260508201549 59 0 1.0 6.0 0.00 0.00 0.00 36 1009.1
20260508200050 60 106 2.0 13.0 0.00 0.00 0.00 34 1009.2
20260508194547 60 256 2.0 6.0 0.00 0.00 0.00 33 1009.2
20260508193102 58 0 2.0 8.0 0.00 0.00 0.00 36 1009.2
20260508191557 58 115 1.0 7.0 0.00 0.00 0.00 36 1009.3
20260508190104 59 311 1.0 10.0 0.00 0.00 0.00 37 1009.2
20260508184559 60 309 2.0 6.0 0.00 0.00 0.00 34 1009.2
20260508183101 59 324 1.0 9.0 0.00 0.00 0.00 41 1009.3
20260508181551 59 129 2.0 11.0 0.00 0.00 0.00 37 1009.3
20260508180105 59 311 3.0 10.0 0.00 0.00 0.00 36 1009.2